[[{"header":{"parameterUnit":"m.s-1","parameterCategory":1,"la1":30.2991,"la2":30.254,"lo1":-89.0895,"lo2":-89.0444,"dy":0.0017,"dx":0.0017,"nx":28,"ny":28,"refTime":"2025-08-21T03:00:00:Z","depth":0,"parameterNumber":2,"parameterNumberName":"U-component_of_WINDS"},"data":[0,0,0,0,0,0,0,0,0,0,0,0,0,0,0,0,0,0,0,0,0,0,0,0,0,0,0,0,0,0,0,0,0,0,0,0,0,0,0,0,0,0,0,0,0,0,0,0,0,0,0,0,0,0,0,0,0,0,1.8238,1.8238,0,1.8208,1.8208,1.8208,1.8205,1.8205,1.8205,1.8206,1.8172,1.817,1.8169,0,0,0,0,0,0,0,0,0,0,0,0,0,1.829,1.8289,1.8238,1.8238,1.8237,1.8208,1.8208,1.8208,1.8205,1.8205,1.8206,1.8206,1.8172,1.817,1.8169,0,0,0,0,0,0,0,0,0,0,0,0,0,1.8264,1.8288,1.8238,1.8232,1.8232,1.8208,1.8208,1.8207,1.8205,1.8205,1.8206,1.8206,1.8172,1.8171,1.8169,1.8148,0,0,1.8163,1.8162,0,0,0,0,0,0,0,0,1.8266,1.8262,1.8234,1.8233,1.8232,1.8211,1.8214,1.8187,1.8205,1.8215,1.8206,1.8206,1.8184,1.8181,1.8174,1.8146,1.8145,1.8163,1.8162,1.8161,1.8161,0,0,0,0,0,0,0,1.8267,1.8263,1.8226,1.8233,1.8232,1.8231,1.8228,1.8209,1.8197,1.8214,1.8214,1.821,1.8184,1.8176,1.8174,1.8144,1.8163,1.8162,1.816,1.816,1.8098,1.8098,0,0,0,0,0,0,1.8271,1.8265,1.8227,1.8225,1.825,1.8229,1.8226,1.8217,1.8197,1.8195,1.821,1.821,1.8179,1.8176,1.8172,1.8146,1.8161,1.816,1.8158,1.8099,1.8098,1.8097,0,0,0,0,0,0,1.8272,1.8267,1.8228,1.8245,1.824,1.8228,1.8218,1.8216,1.8209,1.8194,1.8192,1.8205,1.8179,1.8175,1.8154,1.8145,1.8159,1.8157,1.8099,1.8098,1.8098,1.8095,0,0,0,0,0,0,1.8273,1.8268,1.826,1.8245,1.8239,1.8211,1.8218,1.8215,1.8206,1.8206,1.8189,1.8186,1.8179,1.8157,1.8153,1.8143,1.8156,1.81,1.8099,1.8098,1.8095,1.8094,1.8092,0,0,0,0,0,1.8275,1.8259,1.826,1.8255,1.823,1.8211,1.8207,1.8201,1.8206,1.8197,1.8188,1.8187,1.8148,1.8155,1.815,1.814,1.81,1.8099,1.8098,1.8096,1.8094,1.8092,0,0,0,0,0,0,1.8272,1.8257,1.8257,1.8236,1.8225,1.8211,1.82,1.8199,1.8185,1.8186,1.8177,1.8173,1.8153,1.8144,1.8153,1.8119,1.8124,1.8122,1.8125,1.8123,1.8121,1.8123,1.8154,0,0,0,0,0,1.8269,1.8256,1.8244,1.8226,1.8221,1.8212,1.8203,1.82,1.8187,1.8182,1.8171,1.8158,1.8143,1.8132,1.8118,1.8095,1.8091,1.8086,1.8084,1.8083,1.808,1.8068,1.8065,1.8093,1.8093,1.8093,0,0,1.8262,1.8253,1.8245,1.8226,1.8216,1.8202,1.8207,1.8192,1.8181,1.8179,1.8159,1.8151,1.8136,1.8114,1.8104,1.8106,1.8072,1.8081,1.808,1.8078,1.8066,1.8063,1.8061,1.8093,1.8093,1.8093,0,0,1.8242,1.8235,1.8219,1.8211,1.8197,1.8192,1.8188,1.8174,1.8169,1.815,1.8148,1.8135,1.8109,1.8098,1.8089,1.8068,1.8066,1.8064,1.8055,1.8042,1.804,1.8038,1.803,1.8027,1.8061,1.8061,1.8061,0,1.8235,1.8215,1.8211,1.8196,1.8188,1.8188,1.8172,1.8163,1.8145,1.8139,1.8142,1.8111,1.81,1.8076,1.8071,1.8065,1.806,1.8064,1.8041,1.8039,1.8037,1.8029,1.8026,1.8061,1.8061,1.8061,1.8061,0,1.8206,1.8192,1.8182,1.8166,1.8157,1.8141,1.8135,1.8126,1.8124,1.8117,1.8098,1.8086,1.8069,1.8063,1.806,1.8039,1.8041,1.8043,1.8048,1.8034,1.8026,1.8023,1.8061,1.8061,1.8061,1.8061,0,0,1.818,1.8165,1.8161,1.8154,1.8141,1.813,1.8115,1.81,1.8092,1.808,1.8067,1.8046,1.8048,1.8038,1.8035,1.8024,1.8008,1.8028,1.8027,1.8023,1.7983,1.798,1.7977,1.8008,1.8007,1.8007,1.7984,0,1.8158,1.8132,1.813,1.8106,1.8093,1.8094,1.8081,1.8071,1.8065,1.8053,1.8046,1.8031,1.8036,1.803,1.802,1.8012,1.7999,1.8014,1.7993,1.7993,1.7995,1.7973,1.7969,1.7948,1.7981,1.798,1.798,0,1.8127,1.8117,1.8093,1.8082,1.8077,1.8065,1.8052,1.804,1.8029,1.8026,1.8016,1.8014,1.7998,1.8006,1.7984,1.7994,1.7986,1.7981,1.798,1.7976,1.7984,1.7967,1.7942,1.7938,1.7975,1.7976,1.7976,0,1.8109,1.8089,1.8072,1.8067,1.8054,1.8046,1.8041,1.803,1.8022,1.801,1.8005,1.7991,1.7983,1.7972,1.7966,1.7973,1.7944,1.7951,1.7939,1.7939,1.7931,1.7931,1.7903,1.7929,1.7929,1.7929,1.7929,0,1.8083,1.8068,1.8064,1.8053,1.8037,1.8034,1.8017,1.8012,1.8003,1.7991,1.7991,1.7979,1.7974,1.7961,1.7957,1.7938,1.7935,1.7931,1.7929,1.793,1.793,1.7922,1.7923,1.7928,1.7929,1.7929,1.7929,0,1.8059,1.8056,1.8037,1.8029,1.8026,1.8014,1.8006,1.7995,1.7991,1.7976,1.7972,1.7965,1.795,1.7944,1.7926,1.7923,1.7901,1.7902,1.7905,1.7904,1.7892,1.7893,1.7856,1.7851,1.7883,1.7883,1.7882,0,1.8041,1.803,1.8021,1.8013,1.8008,1.7996,1.7988,1.7986,1.7978,1.7966,1.7956,1.7942,1.793,1.7907,1.7899,1.7886,1.7885,1.7873,1.7882,1.7883,1.7883,1.7883,1.7881,1.787,1.787,1.787,1.787,0,1.801,1.8009,1.7999,1.7988,1.7979,1.797,1.7961,1.7955,1.7952,1.7942,1.7929,1.792,1.7902,1.7888,1.7874,1.7867,1.7867,1.7867,1.7864,1.7862,1.7864,1.7862,1.7899,1.7867,1.7868,1.7868,1.7868,1.7868,1.7987,1.7977,1.7969,1.7958,1.7952,1.7944,1.7934,1.793,1.7919,1.7905,1.7905,1.789,1.788,1.7862,1.7855,1.7843,1.7845,1.784,1.7839,1.7837,1.7835,1.7869,1.784,1.784,1.784,1.784,1.784,0,1.7954,1.795,1.794,1.7928,1.7919,1.7924,1.7915,1.7906,1.7893,1.7885,1.7875,1.7859,1.7846,1.7839,1.7825,1.7817,1.7816,1.7813,1.7812,1.7811,1.7834,1.7838,1.7814,1.7814,1.7814,1.7814,1.7814,1.7814,1.7935,1.7919,1.7918,1.7899,1.7895,1.7881,1.7876,1.7869,1.7863,1.7846,1.7835,1.7832,1.7824,1.7811,1.7799,1.7797,1.7791,1.7787,1.7785,1.7807,1.7809,1.7812,1.7815,1.7786,1.7786,1.7763,1.7763,1.7762]},{"header":{"parameterUnit":"m.s-1","parameterCategory":1,"la1":30.2991,"la2":30.254,"lo1":-89.0895,"lo2":-89.0444,"dy":0.0017,"dx":0.0017,"nx":28,"ny":28,"refTime":"2025-08-21T03:00:00:Z","depth":0,"parameterNumber":3,"parameterNumberName":"V-component_of_WINDS"},"data":[0,0,0,0,0,0,0,0,0,0,0,0,0,0,0,0,0,0,0,0,0,0,0,0,0,0,0,0,0,0,0,0,0,0,0,0,0,0,0,0,0,0,0,0,0,0,0,0,0,0,0,0,0,0,0,0,0,0,2.8611,2.8613,0,2.8788,2.879,2.8792,2.8834,2.8833,2.8832,2.883,2.9005,2.901,2.9016,0,0,0,0,0,0,0,0,0,0,0,0,0,2.8302,2.8307,2.861,2.8613,2.8615,2.8787,2.879,2.8792,2.8834,2.8833,2.8831,2.883,2.9003,2.901,2.9017,0,0,0,0,0,0,0,0,0,0,0,0,0,2.8453,2.8309,2.861,2.8657,2.8663,2.8787,2.879,2.8793,2.8834,2.8833,2.8831,2.8829,2.9001,2.9009,2.9018,2.9106,0,0,2.9044,2.9048,0,0,0,0,0,0,0,0,2.8444,2.8464,2.8648,2.8654,2.8661,2.8787,2.8745,2.8898,2.8835,2.8769,2.883,2.8828,2.8933,2.8947,2.8984,2.9114,2.9121,2.9045,2.905,2.9053,2.9056,0,0,0,0,0,0,0,2.8434,2.8457,2.868,2.865,2.8658,2.8667,2.8686,2.8774,2.8859,2.8775,2.8778,2.8799,2.8936,2.8976,2.8989,2.9124,2.9044,2.9052,2.9057,2.9061,2.9334,2.9336,0,0,0,0,0,0,2.8416,2.8448,2.8675,2.8686,2.8546,2.8674,2.8696,2.8748,2.8858,2.8873,2.88,2.88,2.8962,2.8979,2.8995,2.9105,2.9053,2.9061,2.9066,2.9332,2.9335,2.9337,0,0,0,0,0,0,2.8409,2.8436,2.8668,2.8568,2.8598,2.8681,2.874,2.8753,2.8792,2.8877,2.8892,2.8825,2.8961,2.8983,2.9078,2.9112,2.9065,2.9073,2.933,2.9333,2.9336,2.9327,0,0,0,0,0,0,2.84,2.8433,2.8469,2.8569,2.8603,2.875,2.8742,2.8757,2.8808,2.8809,2.8905,2.8919,2.8962,2.9065,2.9087,2.9123,2.908,2.9327,2.9331,2.9335,2.9325,2.9329,2.9334,0,0,0,0,0,2.8389,2.8458,2.8471,2.8498,2.865,2.8752,2.8772,2.8822,2.881,2.8846,2.8901,2.8916,2.9105,2.9075,2.9099,2.9139,2.9325,2.933,2.9335,2.9323,2.9328,2.9333,0,0,0,0,0,0,2.8358,2.8472,2.8487,2.8591,2.8662,2.8759,2.8806,2.8826,2.89,2.8898,2.8955,2.8976,2.9067,2.9112,2.9077,2.9229,2.9214,2.9224,2.9197,2.9203,2.9208,2.9194,2.9087,0,0,0,0,0,2.8364,2.8439,2.8534,2.8615,2.8651,2.8722,2.8768,2.8801,2.8875,2.8905,2.8966,2.9036,2.9112,2.916,2.9234,2.9331,2.9352,2.937,2.9375,2.9378,2.9386,2.944,2.9449,2.9353,2.9353,2.9353,0,0,2.8375,2.8447,2.849,2.8611,2.867,2.8745,2.8747,2.8826,2.8881,2.8916,2.9011,2.9058,2.914,2.9237,2.9282,2.9277,2.9417,2.9384,2.9386,2.9392,2.9446,2.9455,2.9463,2.9356,2.9355,2.9355,0,0,2.8434,2.8496,2.8572,2.8631,2.8721,2.8769,2.8786,2.8881,2.8915,2.9011,2.9039,2.9104,2.9233,2.929,2.9336,2.9417,2.9434,2.944,2.9463,2.9515,2.9523,2.953,2.9558,2.9568,2.9447,2.9447,2.9447,0,2.8436,2.8553,2.8607,2.8686,2.8738,2.8775,2.8851,2.8905,2.9013,2.9047,2.904,2.9203,2.926,2.9371,2.9391,2.9427,2.9448,2.9429,2.9518,2.9525,2.9533,2.956,2.9571,2.9447,2.9447,2.9447,2.9447,0,2.8551,2.8631,2.8681,2.8787,2.8845,2.8921,2.8985,2.9036,2.9064,2.9111,2.9208,2.9279,2.9367,2.9396,2.9422,2.951,2.9504,2.9507,2.9493,2.9541,2.9568,2.9579,2.9447,2.9447,2.9447,2.9447,0,0,2.8595,2.8732,2.8749,2.8798,2.89,2.8962,2.9039,2.9129,2.9171,2.9244,2.931,2.9418,2.9422,2.9473,2.9507,2.9553,2.9612,2.955,2.9552,2.9558,2.9712,2.971,2.9722,2.9624,2.9626,2.9628,2.9706,0,2.8666,2.8809,2.8861,2.8977,2.9051,2.9088,2.9156,2.9224,2.927,2.9338,2.9387,2.9464,2.9462,2.9494,2.9541,2.9595,2.9644,2.959,2.9683,2.9686,2.9662,2.9736,2.9734,2.9804,2.9716,2.9718,2.972,0,2.8769,2.8847,2.8971,2.9065,2.9098,2.9158,2.9244,2.9309,2.9387,2.9417,2.9476,2.9506,2.9586,2.9568,2.9678,2.9641,2.9682,2.9713,2.9717,2.9728,2.9706,2.9748,2.9827,2.9838,2.9737,2.9736,2.9734,0,2.8789,2.8924,2.9016,2.9057,2.9168,2.921,2.9257,2.9334,2.9385,2.9459,2.9492,2.9574,2.9618,2.9679,2.973,2.9712,2.9836,2.9821,2.9862,2.986,2.9886,2.9884,2.9973,2.9912,2.9912,2.9912,2.9912,0,2.8863,2.8938,2.9027,2.9083,2.9168,2.9225,2.9306,2.9356,2.9424,2.9489,2.9525,2.9584,2.9648,2.9716,2.9755,2.9841,2.986,2.9885,2.9895,2.9883,2.9879,2.991,2.9906,2.9915,2.9914,2.9914,2.9913,0,2.8899,2.8962,2.9065,2.9163,2.9189,2.9247,2.9329,2.9384,2.9432,2.9515,2.9537,2.9611,2.9693,2.975,2.9853,2.988,2.9972,2.9981,2.9946,2.9951,2.9988,2.9984,3.01,3.0118,3.0045,3.0046,3.0046,0,2.8943,2.9001,2.9106,2.9154,2.9203,2.9279,2.9332,2.939,2.9443,2.9536,2.958,2.9664,2.9735,2.9863,2.9925,3.0004,3.0015,3.005,3.0027,3.0013,3.0016,3.0012,3.0017,3.0054,3.0054,3.0055,3.0055,0,2.9013,2.9042,2.9118,2.9205,2.9267,2.9338,2.9408,2.9444,2.9515,2.9572,2.9657,2.9712,2.9819,2.9902,2.9988,3.0034,3.0056,3.0062,3.0076,3.0063,3.0041,3.0054,2.9956,3.0059,3.0059,3.0058,3.0058,3.0058,2.9054,2.9109,2.9192,2.9275,2.9335,2.94,2.9457,2.9513,2.9586,2.968,2.9709,2.9798,2.9873,2.9991,3.0039,3.0107,3.0104,3.0124,3.0129,3.0133,3.0132,3.003,3.0122,3.0122,3.0122,3.0122,3.0122,0,2.9127,2.9183,2.9259,2.9358,2.9423,2.9441,2.952,2.9572,2.965,2.972,2.979,2.9888,2.9968,3.0037,3.012,3.0161,3.0173,3.0181,3.0178,3.0188,3.013,3.011,3.017,3.017,3.017,3.017,3.017,3.017,2.9172,2.9265,2.9303,2.9426,2.948,2.9569,2.9613,2.9673,2.9729,2.9838,2.9906,2.9951,3.002,3.0108,3.0182,3.02,3.0229,3.0234,3.0254,3.0198,3.0192,3.0187,3.0169,3.024,3.024,3.0307,3.0308,3.0308]}]]